QPF
0.08 0.08 0.09 0.09 0.09 0.07 0.07 0.08 0.08 0.08 0.06 0.04 0.02 0.02 0.02 0.02 0.02 0.02 0.01 0.01 0.01 0.01 0.01 0.02 0.05 0.07 0.08 0.07 0.06 0.03 0.02 0.02 0.01 0.01 0.01 0.01 0.02 0.02
0.08 0.08 0.08 0.07 0.07 0.07 0.06 0.06 0.07 0.07 0.05 0.04 0.04 0.02 0.02 0.02 0.02 0.02 0.02 0.02 0.01 0.01 0.00 0.01 0.02 0.06 0.11 0.06 0.06 0.04 0.02 0.01 0.01 0.01 0.01 0.01 0.02 0.02
0.08 0.07 0.06 0.05 0.05 0.05 0.05 0.06 0.07 0.07 0.06 0.04 0.04 0.03 0.03 0.03 0.03 0.03 0.03 0.02 0.01 0.01 0.01 0.00 0.01 0.03 0.09 0.07 0.05 0.05 0.03 0.01 0.01 0.01 0.01 0.01 0.01 0.02
0.07 0.06 0.05 0.05 0.05 0.05 0.05 0.05 0.05 0.06 0.06 0.05 0.04 0.03 0.03 0.03 0.03 0.03 0.03 0.01 0.01 0.01 0.01 0.01 0.01 0.02 0.05 0.07 0.04 0.04 0.03 0.02 0.01 0.01 0.01 0.01 0.01 0.01
0.05 0.05 0.04 0.05 0.05 0.05 0.05 0.05 0.05 0.04 0.04 0.04 0.04 0.04 0.03 0.02 0.03 0.03 0.04 0.04 0.02 0.01 0.01 0.01 0.02 0.02 0.04 0.07 0.05 0.03 0.03 0.03 0.02 0.01 0.01 0.01 0.01 0.01
0.05 0.05 0.05 0.05 0.05 0.04 0.04 0.05 0.05 0.06 0.06 0.05 0.05 0.04 0.04 0.03 0.02 0.03 0.04 0.04 0.03 0.02 0.01 0.01 0.01 0.02 0.03 0.05 0.05 0.03 0.03 0.03 0.02 0.02 0.01 0.01 0.01 0.01
0.06 0.06 0.06 0.06 0.05 0.04 0.03 0.03 0.04 0.05 0.06 0.05 0.05 0.04 0.04 0.04 0.03 0.02 0.03 0.04 0.04 0.03 0.02 0.01 0.02 0.02 0.03 0.04 0.05 0.04 0.03 0.03 0.02 0.02 0.01 0.01 0.01 0.01
0.06 0.06 0.06 0.05 0.05 0.03 0.02 0.01 0.03 0.04 0.05 0.06 0.05 0.04 0.05 0.04 0.03 0.03 0.03 0.04 0.04 0.03 0.03 0.02 0.02 0.03 0.03 0.04 0.04 0.04 0.04 0.03 0.02 0.02 0.02 0.01 0.01 0.01
0.07 0.06 0.04 0.03 0.03 0.02 0.01 0.01 0.02 0.03 0.05 0.06 0.06 0.04 0.05 0.05 0.04 0.03 0.04 0.05 0.05 0.03 0.03 0.03 0.03 0.03 0.04 0.03 0.03 0.03 0.03 0.04 0.03 0.03 0.02 0.01 0.01 0.01
0.05 0.05 0.05 0.05 0.03 0.02 0.02 0.02 0.02 0.03 0.02 0.02 0.03 0.03 0.03 0.04 0.04 0.03 0.03 0.03 0.04 0.03 0.03 0.03 0.04 0.04 0.03 0.03 0.03 0.04 0.05 0.05 0.05 0.04 0.03 0.01 0.02 0.02
0.04 0.04 0.03 0.03 0.02 0.01 0.01 0.02 0.02 0.02 0.02 0.02 0.02 0.02 0.03 0.03 0.03 0.03 0.02 0.02 0.02 0.02 0.02 0.03 0.04 0.04 0.03 0.03 0.03 0.04 0.06 0.07 0.06 0.05 0.02 0.01 0.02 0.02
0.03 0.03 0.02 0.01 0.00 0.01 0.01 0.02 0.02 0.03 0.04 0.04 0.04 0.03 0.02 0.02 0.02 0.02 0.02 0.03 0.02 0.02 0.01 0.03 0.03 0.04 0.04 0.03 0.03 0.04 0.05 0.06 0.06 0.04 0.02 0.02 0.03 0.03
0.02 0.02 0.02 0.01 0.00 0.01 0.01 0.02 0.04 0.04 0.04 0.04 0.04 0.04 0.03 0.02 0.02 0.01 0.01 0.02 0.03 0.02 0.01 0.02 0.03 0.04 0.05 0.03 0.02 0.03 0.04 0.04 0.04 0.04 0.04 0.03 0.03 0.04
0.03 0.03 0.02 0.01 0.01 0.01 0.01 0.01 0.02 0.02 0.02 0.03 0.03 0.03 0.03 0.03 0.03 0.02 0.01 0.02 0.03 0.03 0.03 0.03 0.03 0.04 0.05 0.04 0.03 0.02 0.02 0.02 0.03 0.04 0.05 0.04 0.03 0.03
0.02 0.01 0.01 0.01 0.01 0.01 0.01 0.02 0.01 0.01 0.01 0.01 0.01 0.02 0.03 0.03 0.04 0.04 0.04 0.03 0.03 0.03 0.02 0.03 0.03 0.03 0.05 0.05 0.04 0.03 0.02 0.01 0.01 0.02 0.03 0.04 0.04 0.04
0.01 0.01 0.01 0.00 0.01 0.01 0.01 0.02 0.02 0.01 0.01 0.01 0.02 0.03 0.04 0.05 0.05 0.04 0.04 0.04 0.04 0.04 0.04 0.03 0.04 0.04 0.04 0.05 0.04 0.04 0.03 0.02 0.02 0.02 0.02 0.03 0.04 0.04
0.00 0.01 0.01 0.01 0.01 0.01 0.01 0.01 0.02 0.03 0.02 0.02 0.03 0.04 0.05 0.06 0.06 0.05 0.06 0.05 0.04 0.03 0.03 0.03 0.03 0.04 0.04 0.04 0.03 0.03 0.03 0.03 0.02 0.02 0.03 0.03 0.03 0.03
0.00 0.01 0.01 0.01 0.01 0.01 0.01 0.01 0.02 0.02 0.03 0.03 0.04 0.04 0.05 0.06 0.06 0.06 0.07 0.06 0.05 0.04 0.03 0.02 0.02 0.03 0.04 0.03 0.03 0.03 0.02 0.03 0.03 0.03 0.03 0.04 0.04 0.04
0.01 0.01 0.01 0.01 0.01 0.00 0.01 0.01 0.01 0.02 0.02 0.03 0.04 0.05 0.06 0.06 0.06 0.06 0.06 0.06 0.05 0.05 0.04 0.03 0.03 0.03 0.03 0.02 0.02 0.02 0.02 0.02 0.03 0.03 0.04 0.04 0.05 0.05
0.01 0.01 0.01 0.01 0.01 0.01 0.01 0.01 0.01 0.01 0.02 0.03 0.04 0.05 0.06 0.06 0.07 0.07 0.06 0.06 0.05 0.05 0.04 0.03 0.03 0.03 0.02 0.02 0.02 0.02 0.02 0.02 0.03 0.04 0.04 0.04 0.04 0.04
0.01 0.01 0.01 0.00 0.00 0.01 0.01 0.01 0.01 0.01 0.01 0.02 0.03 0.04 0.06 0.08 0.07 0.06 0.06 0.05 0.05 0.05 0.05 0.04 0.04 0.04 0.04 0.03 0.03 0.03 0.04 0.04 0.04 0.03 0.03 0.03 0.04 0.05
0.01 0.01 0.01 0.01 0.00 0.01 0.01 0.01 0.00 0.01 0.01 0.02 0.02 0.03 0.04 0.06 0.07 0.05 0.04 0.04 0.05 0.05 0.06 0.05 0.05 0.05 0.05 0.04 0.04 0.05 0.05 0.05 0.04 0.04 0.04 0.04 0.04 0.05
0.01 0.01 0.01 0.01 0.01 0.01 0.01 0.01 0.01 0.01 0.01 0.01 0.02 0.02 0.03 0.04 0.05 0.05 0.05 0.05 0.06 0.06 0.06 0.06 0.06 0.06 0.06 0.06 0.06 0.06 0.05 0.05 0.05 0.04 0.05 0.06 0.05 0.05
MSLP
1018.24 1018.36 1018.50 1018.60 1018.65 1018.61 1018.49 1018.30 1018.07 1017.82 1017.59 1017.39 1017.25 1017.14 1017.06 1016.98 1016.89 1016.78 1016.63 1016.47 1016.30 1016.14 1016.00 1015.89 1015.80 1015.73 1015.65 1015.55 1015.41 1015.24 1015.04 1014.82 1014.61 1014.42 1014.27 1014.18 1014.14 1014.14
1018.57 1018.74 1018.90 1019.04 1019.11 1019.09 1018.97 1018.77 1018.51 1018.21 1017.92 1017.64 1017.41 1017.20 1017.02 1016.84 1016.66 1016.45 1016.22 1015.98 1015.74 1015.52 1015.33 1015.18 1015.07 1014.99 1014.92 1014.85 1014.76 1014.63 1014.49 1014.32 1014.15 1014.00 1013.87 1013.80 1013.77 1013.79
1018.77 1018.95 1019.13 1019.29 1019.38 1019.38 1019.28 1019.08 1018.82 1018.51 1018.18 1017.86 1017.56 1017.29 1017.03 1016.77 1016.50 1016.21 1015.90 1015.59 1015.27 1014.98 1014.73 1014.53 1014.38 1014.27 1014.19 1014.12 1014.05 1013.96 1013.85 1013.73 1013.60 1013.48 1013.38 1013.33 1013.31 1013.34
1018.90 1019.06 1019.24 1019.39 1019.49 1019.50 1019.42 1019.25 1019.00 1018.70 1018.38 1018.05 1017.72 1017.41 1017.10 1016.79 1016.46 1016.10 1015.73 1015.34 1014.95 1014.59 1014.27 1014.00 1013.79 1013.64 1013.53 1013.45 1013.38 1013.30 1013.22 1013.13 1013.03 1012.94 1012.86 1012.82 1012.82 1012.86
1019.03 1019.15 1019.29 1019.41 1019.49 1019.51 1019.45 1019.31 1019.09 1018.82 1018.52 1018.21 1017.88 1017.56 1017.23 1016.89 1016.52 1016.12 1015.70 1015.25 1014.80 1014.37 1013.98 1013.64 1013.36 1013.15 1012.99 1012.88 1012.79 1012.71 1012.64 1012.56 1012.48 1012.41 1012.36 1012.33 1012.34 1012.38
1019.23 1019.27 1019.35 1019.43 1019.48 1019.49 1019.44 1019.32 1019.13 1018.90 1018.63 1018.34 1018.03 1017.72 1017.39 1017.03 1016.64 1016.22 1015.76 1015.27 1014.77 1014.29 1013.83 1013.42 1013.08 1012.80 1012.58 1012.42 1012.31 1012.21 1012.13 1012.06 1012.00 1011.94 1011.89 1011.86 1011.87 1011.91
1019.48 1019.46 1019.47 1019.50 1019.51 1019.50 1019.45 1019.33 1019.17 1018.96 1018.71 1018.44 1018.14 1017.83 1017.50 1017.14 1016.75 1016.31 1015.84 1015.33 1014.80 1014.28 1013.77 1013.31 1012.91 1012.57 1012.29 1012.08 1011.92 1011.80 1011.70 1011.62 1011.55 1011.49 1011.44 1011.41 1011.41 1011.43
1019.77 1019.70 1019.65 1019.63 1019.61 1019.58 1019.50 1019.39 1019.22 1019.01 1018.76 1018.48 1018.19 1017.87 1017.53 1017.16 1016.76 1016.33 1015.85 1015.34 1014.81 1014.26 1013.74 1013.24 1012.80 1012.41 1012.08 1011.82 1011.61 1011.45 1011.32 1011.21 1011.12 1011.04 1010.98 1010.93 1010.91 1010.91
1020.04 1019.93 1019.86 1019.81 1019.77 1019.70 1019.61 1019.47 1019.28 1019.04 1018.77 1018.46 1018.13 1017.79 1017.42 1017.04 1016.64 1016.20 1015.74 1015.24 1014.73 1014.20 1013.68 1013.18 1012.71 1012.29 1011.92 1011.61 1011.35 1011.14 1010.96 1010.80 1010.67 1010.55 1010.45 1010.37 1010.32 1010.30
1020.22 1020.12 1020.05 1019.99 1019.93 1019.85 1019.73 1019.55 1019.33 1019.04 1018.72 1018.36 1017.97 1017.58 1017.18 1016.77 1016.35 1015.93 1015.48 1015.02 1014.55 1014.06 1013.57 1013.09 1012.63 1012.20 1011.80 1011.44 1011.13 1010.85 1010.60 1010.37 1010.17 1009.99 1009.84 1009.71 1009.62 1009.57
1020.28 1020.21 1020.16 1020.11 1020.05 1019.95 1019.81 1019.60 1019.33 1018.99 1018.61 1018.18 1017.73 1017.27 1016.82 1016.38 1015.96 1015.54 1015.13 1014.71 1014.29 1013.87 1013.43 1012.99 1012.56 1012.13 1011.71 1011.32 1010.94 1010.58 1010.25 1009.93 1009.64 1009.38 1009.14 1008.95 1008.80 1008.72
1020.24 1020.20 1020.17 1020.14 1020.08 1019.98 1019.82 1019.59 1019.27 1018.89 1018.44 1017.95 1017.44 1016.93 1016.43 1015.96 1015.53 1015.12 1014.74 1014.38 1014.03 1013.67 1013.30 1012.92 1012.52 1012.11 1011.68 1011.25 1010.81 1010.37 1009.93 1009.51 1009.12 1008.75 1008.42 1008.15 1007.94 1007.81
1020.14 1020.12 1020.10 1020.07 1020.02 1019.91 1019.74 1019.49 1019.15 1018.74 1018.25 1017.72 1017.16 1016.61 1016.08 1015.59 1015.15 1014.76 1014.42 1014.11 1013.82 1013.53 1013.23 1012.90 1012.55 1012.15 1011.72 1011.25 1010.75 1010.23 1009.70 1009.18 1008.67 1008.19 1007.77 1007.41 1007.14 1006.97
1020.03 1020.00 1019.97 1019.94 1019.87 1019.76 1019.58 1019.33 1018.99 1018.56 1018.07 1017.52 1016.95 1016.38 1015.83 1015.34 1014.90 1014.52 1014.21 1013.94 1013.70 1013.47 1013.23 1012.96 1012.64 1012.27 1011.84 1011.35 1010.80 1010.21 1009.60 1008.98 1008.37 1007.80 1007.29 1006.86 1006.53 1006.32
1019.95 1019.89 1019.82 1019.74 1019.65 1019.53 1019.35 1019.11 1018.79 1018.39 1017.92 1017.39 1016.84 1016.28 1015.74 1015.25 1014.81 1014.45 1014.15 1013.91 1013.70 1013.51 1013.31 1013.08 1012.80 1012.45 1012.02 1011.52 1010.95 1010.33 1009.66 1008.98 1008.31 1007.67 1007.09 1006.61 1006.23 1005.98
1019.93 1019.79 1019.65 1019.52 1019.40 1019.26 1019.08 1018.86 1018.58 1018.23 1017.82 1017.35 1016.83 1016.31 1015.80 1015.32 1014.89 1014.53 1014.23 1013.99 1013.80 1013.62 1013.44 1013.24 1012.98 1012.65 1012.25 1011.76 1011.20 1010.57 1009.89 1009.20 1008.50 1007.84 1007.24 1006.73 1006.33 1006.06
1019.92 1019.70 1019.48 1019.29 1019.12 1018.96 1018.80 1018.61 1018.39 1018.11 1017.77 1017.37 1016.92 1016.45 1015.97 1015.51 1015.09 1014.72 1014.41 1014.15 1013.94 1013.76 1013.58 1013.39 1013.15 1012.85 1012.48 1012.03 1011.50 1010.91 1010.28 1009.61 1008.95 1008.31 1007.73 1007.23 1006.83 1006.56
1019.89 1019.58 1019.29 1019.04 1018.83 1018.66 1018.52 1018.38 1018.21 1018.01 1017.76 1017.44 1017.07 1016.65 1016.21 1015.77 1015.35 1014.96 1014.62 1014.33 1014.09 1013.88 1013.69 1013.49 1013.27 1013.00 1012.68 1012.29 1011.83 1011.32 1010.76 1010.18 1009.60 1009.04 1008.52 1008.06 1007.70 1007.43
1019.77 1019.41 1019.07 1018.78 1018.54 1018.38 1018.26 1018.16 1018.07 1017.95 1017.77 1017.54 1017.23 1016.87 1016.46 1016.03 1015.60 1015.19 1014.82 1014.49 1014.21 1013.96 1013.75 1013.55 1013.33 1013.10 1012.83 1012.51 1012.14 1011.73 1011.29 1010.82 1010.35 1009.89 1009.47 1009.09 1008.78 1008.55
1019.53 1019.15 1018.79 1018.49 1018.27 1018.12 1018.04 1018.00 1017.96 1017.91 1017.81 1017.64 1017.39 1017.07 1016.69 1016.26 1015.82 1015.38 1014.97 1014.60 1014.28 1014.00 1013.77 1013.56 1013.35 1013.15 1012.93 1012.68 1012.41 1012.10 1011.78 1011.44 1011.09 1010.76 1010.45 1010.17 1009.93 1009.74
1019.17 1018.81 1018.48 1018.21 1018.02 1017.92 1017.88 1017.89 1017.91 1017.91 1017.86 1017.74 1017.53 1017.24 1016.87 1016.45 1015.99 1015.54 1015.10 1014.69 1014.34 1014.03 1013.78 1013.56 1013.36 1013.18 1013.00 1012.82 1012.62 1012.41 1012.19 1011.96 1011.74 1011.52 1011.32 1011.13 1010.98 1010.84
1018.72 1018.43 1018.17 1017.96 1017.83 1017.79 1017.80 1017.86 1017.93 1017.96 1017.95 1017.85 1017.66 1017.38 1017.02 1016.60 1016.13 1015.66 1015.21 1014.79 1014.41 1014.09 1013.82 1013.59 1013.40 1013.23 1013.07 1012.92 1012.78 1012.63 1012.48 1012.34 1012.21 1012.09 1011.98 1011.88 1011.79 1011.71
1018.23 1018.03 1017.87 1017.76 1017.71 1017.74 1017.81 1017.92 1018.01 1018.08 1018.07 1017.99 1017.80 1017.52 1017.16 1016.73 1016.27 1015.80 1015.34 1014.91 1014.53 1014.20 1013.92 1013.69 1013.49 1013.31 1013.16 1013.02 1012.89 1012.77 1012.66 1012.56 1012.48 1012.42 1012.37 1012.33 1012.31 1012.28
Thickness
5677 5675 5674 5674 5674 5674 5672 5668 5661 5657 5658 5662 5662 5663 5662 5660 5658 5656 5654 5651 5649 5647 5644 5641 5639 5637 5634 5632 5631 5630 5629 5628 5628 5628 5629 5629 5630 5630
5673 5671 5669 5670 5669 5669 5668 5666 5663 5657 5654 5657 5657 5658 5657 5656 5654 5652 5650 5648 5645 5643 5640 5638 5635 5632 5630 5627 5625 5624 5623 5622 5622 5622 5622 5623 5623 5624
5668 5667 5665 5665 5663 5663 5662 5661 5659 5656 5651 5652 5654 5654 5652 5651 5649 5648 5646 5644 5643 5640 5638 5635 5632 5629 5626 5624 5622 5619 5618 5617 5617 5616 5616 5617 5617 5618
5664 5662 5660 5660 5658 5656 5655 5654 5653 5652 5648 5646 5647 5648 5647 5647 5645 5643 5643 5642 5640 5638 5635 5632 5629 5626 5624 5621 5619 5616 5614 5613 5612 5611 5611 5611 5611 5611
5660 5658 5657 5654 5652 5651 5649 5648 5647 5648 5646 5643 5642 5643 5643 5643 5641 5639 5639 5637 5636 5635 5632 5628 5626 5623 5621 5618 5616 5614 5612 5609 5607 5606 5605 5604 5605 5605
5657 5654 5653 5651 5648 5646 5645 5644 5643 5641 5640 5639 5638 5638 5638 5638 5636 5633 5631 5631 5629 5629 5627 5625 5622 5619 5617 5615 5613 5611 5608 5605 5602 5600 5599 5598 5598 5598
5652 5650 5649 5648 5645 5642 5641 5639 5638 5636 5635 5634 5633 5633 5631 5630 5628 5628 5625 5625 5624 5623 5620 5620 5618 5616 5613 5611 5608 5606 5603 5600 5598 5596 5594 5593 5592 5592
5647 5646 5645 5643 5642 5639 5637 5636 5635 5632 5630 5628 5627 5626 5625 5625 5624 5622 5619 5617 5615 5617 5614 5612 5612 5611 5609 5607 5605 5602 5599 5596 5593 5591 5589 5588 5587 5587
5644 5642 5642 5641 5638 5635 5633 5632 5631 5630 5628 5624 5621 5620 5620 5620 5618 5616 5613 5611 5610 5611 5608 5606 5606 5604 5604 5602 5600 5597 5594 5591 5588 5586 5584 5583 5582 5582
5640 5639 5637 5635 5633 5631 5630 5628 5627 5626 5624 5622 5619 5618 5618 5617 5614 5612 5610 5609 5609 5609 5606 5601 5601 5599 5599 5596 5593 5591 5588 5585 5583 5581 5579 5578 5578 5577
5637 5635 5633 5631 5629 5627 5625 5624 5623 5621 5621 5620 5618 5616 5613 5612 5610 5607 5605 5603 5602 5602 5601 5597 5596 5594 5592 5590 5587 5585 5582 5579 5577 5576 5575 5574 5573 5572
5633 5632 5630 5628 5625 5623 5621 5619 5617 5617 5616 5615 5613 5612 5610 5609 5607 5603 5600 5597 5596 5595 5596 5592 5589 5586 5584 5584 5582 5579 5576 5574 5572 5571 5571 5570 5568 5566
5631 5630 5628 5626 5623 5620 5617 5616 5615 5613 5611 5611 5610 5610 5609 5606 5604 5601 5598 5595 5591 5590 5591 5587 5583 5580 5576 5576 5576 5575 5572 5570 5569 5568 5567 5566 5564 5562
5627 5627 5625 5622 5620 5617 5615 5614 5612 5609 5608 5607 5607 5607 5605 5604 5602 5599 5596 5593 5591 5589 5587 5583 5579 5575 5572 5570 5570 5570 5568 5567 5566 5565 5564 5563 5561 5559
5624 5623 5620 5617 5616 5614 5613 5611 5608 5606 5605 5605 5604 5603 5603 5602 5600 5596 5594 5591 5589 5587 5584 5581 5577 5573 5569 5566 5565 5564 5563 5563 5562 5561 5560 5559 5558 5556
5618 5617 5615 5614 5612 5612 5611 5609 5607 5606 5604 5603 5602 5602 5601 5599 5596 5594 5590 5587 5584 5582 5581 5578 5575 5571 5567 5565 5562 5560 5559 5558 5558 5558 5557 5556 5555 5554
5614 5613 5613 5612 5611 5611 5610 5609 5608 5606 5603 5602 5600 5598 5597 5595 5593 5591 5588 5584 5580 5578 5576 5575 5572 5568 5565 5561 5558 5557 5555 5554 5554 5553 5552 5551 5551 5551
5610 5611 5611 5611 5610 5610 5610 5608 5607 5604 5602 5601 5598 5596 5593 5591 5589 5588 5585 5582 5578 5576 5573 5571 5568 5563 5560 5558 5556 5554 5553 5551 5551 5550 5548 5547 5547 5547
5606 5608 5608 5608 5609 5609 5608 5607 5605 5603 5600 5598 5596 5593 5591 5588 5586 5583 5581 5579 5576 5573 5570 5568 5564 5559 5555 5554 5555 5553 5550 5549 5547 5546 5545 5543 5542 5542
5606 5607 5607 5607 5607 5606 5605 5604 5602 5599 5597 5595 5593 5591 5588 5586 5583 5580 5578 5576 5573 5570 5567 5565 5561 5558 5554 5552 5551 5550 5548 5546 5544 5542 5542 5540 5539 5538
5607 5607 5606 5606 5605 5603 5602 5600 5598 5595 5593 5591 5589 5587 5585 5583 5580 5578 5576 5572 5569 5567 5564 5562 5560 5558 5555 5552 5548 5548 5547 5545 5543 5540 5539 5537 5536 5534
5606 5605 5604 5603 5602 5600 5598 5596 5594 5592 5589 5587 5586 5583 5582 5579 5577 5575 5573 5570 5567 5564 5562 5560 5559 5556 5553 5549 5546 5545 5544 5543 5540 5538 5537 5536 5533 5532
5602 5601 5601 5600 5598 5597 5595 5592 5590 5588 5586 5584 5582 5580 5578 5576 5574 5572 5570 5568 5565 5562 5560 5557 5556 5553 5550 5548 5545 5543 5543 5541 5538 5536 5533 5533 5532 5530